Datum / Uhrzeit;kW;;
01.01.2023 00:15;8.403;;
01.01.2023 00:30;8.312;;
01.01.2023 00:45;7.959;;
01.01.2023 01:00;7.721;;
01.01.2023 01:15;8.051;;
01.01.2023 01:30;7.979;;
01.01.2023 01:45;7.739;;
01.01.2023 02:00;7.728;;
01.01.2023 02:15;7.783;;
01.01.2023 02:30;7.809;;
01.01.2023 02:45;7.841;;
01.01.2023 03:00;7.703;;
01.01.2023 03:15;7.417;;
01.01.2023 03:30;7.436;;
01.01.2023 03:45;7.366;;
01.01.2023 04:00;7.356;;
01.01.2023 04:15;7.430;;
01.01.2023 04:30;7.476;;
01.01.2023 04:45;7.394;;
01.01.2023 05:00;7.337;;
01.01.2023 05:15;7.314;;
01.01.2023 05:30;7.352;;
01.01.2023 05:45;7.320;;
01.01.2023 06:00;7.272;;
01.01.2023 06:15;7.287;;
01.01.2023 06:30;7.332;;
01.01.2023 06:45;7.319;;
01.01.2023 07:00;7.365;;
01.01.2023 07:15;7.630;;
01.01.2023 07:30;7.727;;
01.01.2023 07:45;7.791;;
01.01.2023 08:00;7.987;;
01.01.2023 08:15;7.892;;
01.01.2023 08:30;7.849;;
01.01.2023 08:45;7.954;;
01.01.2023 09:00;8.010;;
01.01.2023 09:15;8.249;;
01.01.2023 09:30;8.255;;
01.01.2023 09:45;8.366;;
01.01.2023 10:00;8.621;;
01.01.2023 10:15;8.513;;
01.01.2023 10:30;8.607;;
01.01.2023 10:45;8.486;;
01.01.2023 11:00;8.415;;
01.01.2023 11:15;8.488;;
01.01.2023 11:30;9.133;;
01.01.2023 11:45;8.754;;
01.01.2023 12:00;8.759;;
01.01.2023 12:15;8.906;;
01.01.2023 12:30;9.113;;
01.01.2023 12:45;9.229;;
01.01.2023 13:00;8.995;;
01.01.2023 13:15;8.932;;
01.01.2023 13:30;8.895;;
01.01.2023 13:45;8.892;;
01.01.2023 14:00;8.735;;
01.01.2023 14:15;8.677;;
01.01.2023 14:30;8.613;;
01.01.2023 14:45;8.535;;
01.01.2023 15:00;8.447;;
01.01.2023 15:15;8.813;;
01.01.2023 15:30;8.719;;
01.01.2023 15:45;8.621;;
01.01.2023 16:00;8.429;;
01.01.2023 16:15;8.355;;
01.01.2023 16:30;8.441;;
01.01.2023 16:45;8.675;;
01.01.2023 17:00;9.060;;
01.01.2023 17:15;9.436;;
01.01.2023 17:30;9.673;;
01.01.2023 17:45;9.845;;
01.01.2023 18:00;9.992;;
01.01.2023 18:15;9.974;;
01.01.2023 18:30;9.888;;
01.01.2023 18:45;9.896;;
01.01.2023 19:00;10.124;;
01.01.2023 19:15;10.565;;
01.01.2023 19:30;10.730;;
01.01.2023 19:45;10.785;;
01.01.2023 20:00;10.543;;
01.01.2023 20:15;10.465;;
01.01.2023 20:30;10.242;;
01.01.2023 20:45;10.170;;
01.01.2023 21:00;10.071;;
01.01.2023 21:15;9.723;;
01.01.2023 21:30;9.639;;
01.01.2023 21:45;9.867;;
01.01.2023 22:00;9.923;;
01.01.2023 22:15;10.123;;
01.01.2023 22:30;10.064;;
01.01.2023 22:45;9.905;;
01.01.2023 23:00;9.601;;
01.01.2023 23:15;9.215;;
01.01.2023 23:30;9.005;;
01.01.2023 23:45;8.670;;
02.01.2023 00:00;8.375;;
02.01.2023 00:15;8.154;;
02.01.2023 00:30;8.022;;
02.01.2023 00:45;8.194;;
02.01.2023 01:00;8.050;;
02.01.2023 01:15;8.030;;
02.01.2023 01:30;7.757;;
02.01.2023 01:45;7.708;;
02.01.2023 02:00;7.578;;
02.01.2023 02:15;7.517;;
02.01.2023 02:30;7.365;;
02.01.2023 02:45;7.195;;
02.01.2023 03:00;7.382;;
02.01.2023 03:15;7.341;;
02.01.2023 03:30;7.237;;
02.01.2023 03:45;7.381;;
02.01.2023 04:00;7.621;;
02.01.2023 04:15;7.673;;
02.01.2023 04:30;7.855;;
02.01.2023 04:45;7.952;;
02.01.2023 05:00;8.163;;
02.01.2023 05:15;8.283;;
02.01.2023 05:30;8.496;;
02.01.2023 05:45;8.459;;
02.01.2023 06:00;7.958;;
02.01.2023 06:15;8.203;;
02.01.2023 06:30;8.318;;
02.01.2023 06:45;8.496;;
02.01.2023 07:00;8.806;;
02.01.2023 07:15;9.111;;
02.01.2023 07:30;9.283;;
02.01.2023 07:45;9.684;;
02.01.2023 08:00;9.894;;
02.01.2023 08:15;10.028;;
02.01.2023 08:30;9.936;;
02.01.2023 08:45;10.300;;
02.01.2023 09:00;10.250;;
02.01.2023 09:15;10.121;;
02.01.2023 09:30;10.477;;
02.01.2023 09:45;10.819;;
02.01.2023 10:00;10.822;;
02.01.2023 10:15;11.193;;
02.01.2023 10:30;11.043;;
02.01.2023 10:45;11.252;;
02.01.2023 11:00;11.056;;
02.01.2023 11:15;11.379;;
02.01.2023 11:30;12.052;;
02.01.2023 11:45;12.346;;
02.01.2023 12:00;12.297;;
02.01.2023 12:15;12.543;;
02.01.2023 12:30;12.698;;
02.01.2023 12:45;12.643;;
02.01.2023 13:00;12.531;;
02.01.2023 13:15;12.488;;
02.01.2023 13:30;12.454;;
02.01.2023 13:45;12.163;;
02.01.2023 14:00;11.597;;
02.01.2023 14:15;11.133;;
02.01.2023 14:30;10.654;;
02.01.2023 14:45;10.906;;
02.01.2023 15:00;11.161;;
02.01.2023 15:15;10.980;;
02.01.2023 15:30;11.288;;
02.01.2023 15:45;11.470;;
02.01.2023 16:00;11.399;;
02.01.2023 16:15;11.235;;
02.01.2023 16:30;11.281;;
02.01.2023 16:45;12.076;;
02.01.2023 17:00;12.315;;
02.01.2023 17:15;12.310;;
02.01.2023 17:30;11.618;;
02.01.2023 17:45;11.937;;
02.01.2023 18:00;12.441;;
02.01.2023 18:15;12.980;;
02.01.2023 18:30;13.012;;
02.01.2023 18:45;12.694;;
02.01.2023 19:00;12.568;;
02.01.2023 19:15;12.749;;
02.01.2023 19:30;12.523;;
02.01.2023 19:45;12.192;;
02.01.2023 20:00;11.735;;
02.01.2023 20:15;11.142;;
02.01.2023 20:30;10.700;;
02.01.2023 20:45;10.408;;
02.01.2023 21:00;10.165;;
02.01.2023 21:15;9.934;;
02.01.2023 21:30;9.620;;
02.01.2023 21:45;9.793;;
02.01.2023 22:00;9.727;;
02.01.2023 22:15;9.746;;
02.01.2023 22:30;9.300;;
02.01.2023 22:45;8.972;;
02.01.2023 23:00;8.764;;
02.01.2023 23:15;8.387;;
02.01.2023 23:30;8.075;;
02.01.2023 23:45;7.772;;
03.01.2023 00:00;7.386;;
03.01.2023 00:15;7.049;;
03.01.2023 00:30;6.867;;
03.01.2023 00:45;6.646;;
03.01.2023 01:00;6.477;;
03.01.2023 01:15;6.335;;
03.01.2023 01:30;6.221;;
03.01.2023 01:45;6.161;;
03.01.2023 02:00;6.068;;
03.01.2023 02:15;6.043;;
03.01.2023 02:30;6.055;;
03.01.2023 02:45;6.101;;
03.01.2023 03:00;6.199;;
03.01.2023 03:15;6.183;;
03.01.2023 03:30;6.282;;
03.01.2023 03:45;6.303;;
03.01.2023 04:00;6.339;;
03.01.2023 04:15;6.541;;
03.01.2023 04:30;6.667;;
03.01.2023 04:45;6.634;;
03.01.2023 05:00;6.663;;
03.01.2023 05:15;6.895;;
03.01.2023 05:30;6.925;;
03.01.2023 05:45;6.949;;
03.01.2023 06:00;7.161;;
03.01.2023 06:15;7.462;;
03.01.2023 06:30;7.737;;
03.01.2023 06:45;7.980;;
03.01.2023 07:00;8.244;;
03.01.2023 07:15;8.590;;
03.01.2023 07:30;8.772;;
03.01.2023 07:45;9.049;;
03.01.2023 08:00;9.380;;
03.01.2023 08:15;9.623;;
03.01.2023 08:30;9.768;;
03.01.2023 08:45;9.832;;
03.01.2023 09:00;9.953;;
03.01.2023 09:15;10.034;;
03.01.2023 09:30;10.056;;
03.01.2023 09:45;9.846;;
03.01.2023 10:00;9.595;;
03.01.2023 10:15;9.359;;
03.01.2023 10:30;9.150;;
03.01.2023 10:45;8.902;;
03.01.2023 11:00;8.756;;
03.01.2023 11:15;9.057;;
03.01.2023 11:30;9.290;;
03.01.2023 11:45;9.372;;
03.01.2023 12:00;9.534;;
03.01.2023 12:15;9.650;;
03.01.2023 12:30;9.842;;
03.01.2023 12:45;9.831;;
03.01.2023 13:00;9.846;;
03.01.2023 13:15;9.950;;
03.01.2023 13:30;9.846;;
03.01.2023 13:45;9.802;;
03.01.2023 14:00;9.634;;
03.01.2023 14:15;9.393;;
03.01.2023 14:30;9.385;;
03.01.2023 14:45;9.426;;
03.01.2023 15:00;9.279;;
03.01.2023 15:15;9.463;;
03.01.2023 15:30;9.746;;
03.01.2023 15:45;9.757;;
03.01.2023 16:00;9.803;;
03.01.2023 16:15;9.975;;
03.01.2023 16:30;10.140;;
03.01.2023 16:45;10.362;;
03.01.2023 17:00;10.625;;
03.01.2023 17:15;11.132;;
03.01.2023 17:30;11.536;;
03.01.2023 17:45;11.940;;
03.01.2023 18:00;11.985;;
03.01.2023 18:15;11.911;;
03.01.2023 18:30;11.751;;
03.01.2023 18:45;11.767;;
03.01.2023 19:00;11.740;;
03.01.2023 19:15;11.572;;
03.01.2023 19:30;11.345;;
03.01.2023 19:45;11.159;;
03.01.2023 20:00;11.055;;
03.01.2023 20:15;10.867;;
03.01.2023 20:30;10.388;;
03.01.2023 20:45;10.214;;
03.01.2023 21:00;9.989;;
03.01.2023 21:15;9.820;;
03.01.2023 21:30;9.820;;
03.01.2023 21:45;10.053;;
03.01.2023 22:00;10.145;;
03.01.2023 22:15;10.314;;
03.01.2023 22:30;9.978;;
03.01.2023 22:45;9.749;;
03.01.2023 23:00;9.493;;
03.01.2023 23:15;9.352;;
03.01.2023 23:30;9.152;;
03.01.2023 23:45;8.814;;
04.01.2023 00:00;8.398;;
04.01.2023 00:15;8.163;;
04.01.2023 00:30;7.981;;
04.01.2023 00:45;7.598;;
04.01.2023 01:00;7.324;;
04.01.2023 01:15;7.399;;
04.01.2023 01:30;7.379;;
04.01.2023 01:45;7.356;;
04.01.2023 02:00;7.401;;
04.01.2023 02:15;7.424;;
04.01.2023 02:30;7.652;;
04.01.2023 02:45;7.784;;
04.01.2023 03:00;7.803;;
04.01.2023 03:15;7.606;;
04.01.2023 03:30;7.540;;
04.01.2023 03:45;7.415;;
04.01.2023 04:00;7.341;;
04.01.2023 04:15;7.402;;
04.01.2023 04:30;7.507;;
04.01.2023 04:45;7.384;;
04.01.2023 05:00;7.439;;
04.01.2023 05:15;7.743;;
04.01.2023 05:30;8.011;;
04.01.2023 05:45;8.249;;
04.01.2023 06:00;8.597;;
04.01.2023 06:15;9.375;;
04.01.2023 06:30;9.709;;
04.01.2023 06:45;10.175;;
04.01.2023 07:00;10.518;;
04.01.2023 07:15;10.883;;
04.01.2023 07:30;10.897;;
04.01.2023 07:45;11.561;;
04.01.2023 08:00;11.829;;
04.01.2023 08:15;11.775;;
04.01.2023 08:30;11.697;;
04.01.2023 08:45;11.956;;
04.01.2023 09:00;11.941;;
04.01.2023 09:15;12.134;;
04.01.2023 09:30;12.591;;
04.01.2023 09:45;12.605;;
04.01.2023 10:00;12.643;;
04.01.2023 10:15;12.692;;
04.01.2023 10:30;12.782;;
04.01.2023 10:45;12.844;;
04.01.2023 11:00;12.844;;
04.01.2023 11:15;12.959;;
04.01.2023 11:30;13.217;;
04.01.2023 11:45;13.373;;
04.01.2023 12:00;13.439;;
04.01.2023 12:15;13.328;;
04.01.2023 12:30;13.278;;
04.01.2023 12:45;13.258;;
04.01.2023 13:00;13.272;;
04.01.2023 13:15;13.302;;
04.01.2023 13:30;13.371;;
04.01.2023 13:45;13.417;;
04.01.2023 14:00;13.391;;
04.01.2023 14:15;13.299;;
04.01.2023 14:30;13.172;;
04.01.2023 14:45;13.123;;
04.01.2023 15:00;13.217;;
04.01.2023 15:15;13.236;;
04.01.2023 15:30;13.325;;
04.01.2023 15:45;13.447;;
04.01.2023 16:00;13.364;;
04.01.2023 16:15;13.583;;
04.01.2023 16:30;13.696;;
04.01.2023 16:45;13.657;;
04.01.2023 17:00;13.883;;
04.01.2023 17:15;14.184;;
04.01.2023 17:30;14.299;;
04.01.2023 17:45;14.437;;
04.01.2023 18:00;14.582;;
04.01.2023 18:15;14.521;;
04.01.2023 18:30;14.478;;
04.01.2023 18:45;14.460;;
04.01.2023 19:00;14.317;;
04.01.2023 19:15;14.183;;
04.01.2023 19:30;14.061;;
04.01.2023 19:45;13.893;;
04.01.2023 20:00;13.711;;
04.01.2023 20:15;13.400;;
04.01.2023 20:30;13.063;;
04.01.2023 20:45;12.676;;
04.01.2023 21:00;12.408;;
04.01.2023 21:15;12.273;;
04.01.2023 21:30;12.215;;
04.01.2023 21:45;12.096;;
04.01.2023 22:00;11.933;;
04.01.2023 22:15;12.022;;
04.01.2023 22:30;11.761;;
04.01.2023 22:45;11.465;;
04.01.2023 23:00;11.249;;
04.01.2023 23:15;10.966;;
04.01.2023 23:30;10.513;;
04.01.2023 23:45;10.166;;
05.01.2023 00:00;10.080;;
05.01.2023 00:15;9.635;;
05.01.2023 00:30;9.516;;
05.01.2023 00:45;9.436;;
05.01.2023 01:00;9.398;;
05.01.2023 01:15;9.106;;
05.01.2023 01:30;8.869;;
05.01.2023 01:45;8.668;;
05.01.2023 02:00;8.528;;
05.01.2023 02:15;8.315;;
05.01.2023 02:30;8.179;;
05.01.2023 02:45;8.186;;
05.01.2023 03:00;7.950;;
05.01.2023 03:15;7.673;;
05.01.2023 03:30;7.731;;
05.01.2023 03:45;8.051;;
05.01.2023 04:00;8.166;;
05.01.2023 04:15;8.261;;
05.01.2023 04:30;8.415;;
05.01.2023 04:45;8.705;;
05.01.2023 05:00;9.069;;
05.01.2023 05:15;9.436;;
05.01.2023 05:30;9.495;;
05.01.2023 05:45;9.632;;
05.01.2023 06:00;9.667;;
05.01.2023 06:15;9.922;;
05.01.2023 06:30;10.048;;
05.01.2023 06:45;9.967;;
05.01.2023 07:00;10.157;;
05.01.2023 07:15;10.730;;
05.01.2023 07:30;10.625;;
05.01.2023 07:45;10.435;;
05.01.2023 08:00;10.623;;
05.01.2023 08:15;11.103;;
05.01.2023 08:30;10.606;;
05.01.2023 08:45;10.629;;
05.01.2023 09:00;10.874;;
05.01.2023 09:15;11.022;;
05.01.2023 09:30;11.368;;
05.01.2023 09:45;11.672;;
05.01.2023 10:00;11.338;;
05.01.2023 10:15;10.906;;
05.01.2023 10:30;10.837;;
05.01.2023 10:45;11.100;;
05.01.2023 11:00;11.442;;
05.01.2023 11:15;11.266;;
05.01.2023 11:30;11.285;;
05.01.2023 11:45;11.564;;
05.01.2023 12:00;11.375;;
05.01.2023 12:15;11.439;;
05.01.2023 12:30;11.239;;
05.01.2023 12:45;10.910;;
05.01.2023 13:00;10.286;;
05.01.2023 13:15;10.276;;
05.01.2023 13:30;10.593;;
05.01.2023 13:45;10.668;;
05.01.2023 14:00;10.616;;
05.01.2023 14:15;10.135;;
05.01.2023 14:30;10.054;;
05.01.2023 14:45;10.068;;
05.01.2023 15:00;9.639;;
05.01.2023 15:15;9.539;;
05.01.2023 15:30;9.652;;
05.01.2023 15:45;9.789;;
05.01.2023 16:00;9.987;;
05.01.2023 16:15;10.201;;
05.01.2023 16:30;10.372;;
05.01.2023 16:45;10.557;;
05.01.2023 17:00;10.732;;
05.01.2023 17:15;11.095;;
05.01.2023 17:30;11.343;;
05.01.2023 17:45;11.715;;
05.01.2023 18:00;11.824;;
05.01.2023 18:15;11.810;;
05.01.2023 18:30;11.738;;
05.01.2023 18:45;11.614;;
05.01.2023 19:00;11.623;;
05.01.2023 19:15;11.582;;
05.01.2023 19:30;11.822;;
05.01.2023 19:45;11.628;;
05.01.2023 20:00;11.496;;
05.01.2023 20:15;11.459;;
05.01.2023 20:30;11.324;;
05.01.2023 20:45;11.092;;
05.01.2023 21:00;11.054;;
05.01.2023 21:15;10.975;;
05.01.2023 21:30;10.778;;
05.01.2023 21:45;10.462;;
05.01.2023 22:00;10.371;;
05.01.2023 22:15;10.591;;
05.01.2023 22:30;10.395;;
05.01.2023 22:45;9.902;;
05.01.2023 23:00;9.494;;
05.01.2023 23:15;8.996;;
05.01.2023 23:30;8.565;;
05.01.2023 23:45;8.107;;
06.01.2023 00:00;7.624;;
06.01.2023 00:15;7.339;;
06.01.2023 00:30;7.255;;
06.01.2023 00:45;6.841;;
06.01.2023 01:00;6.599;;
06.01.2023 01:15;6.392;;
06.01.2023 01:30;6.191;;
06.01.2023 01:45;6.122;;
06.01.2023 02:00;6.112;;
06.01.2023 02:15;6.118;;
06.01.2023 02:30;6.080;;
06.01.2023 02:45;6.197;;
06.01.2023 03:00;6.226;;
06.01.2023 03:15;6.353;;
06.01.2023 03:30;6.907;;
06.01.2023 03:45;6.663;;
06.01.2023 04:00;6.394;;
06.01.2023 04:15;6.480;;
06.01.2023 04:30;6.512;;
06.01.2023 04:45;6.575;;
06.01.2023 05:00;6.545;;
06.01.2023 05:15;6.749;;
06.01.2023 05:30;6.869;;
06.01.2023 05:45;6.921;;
06.01.2023 06:00;7.021;;
06.01.2023 06:15;7.395;;
06.01.2023 06:30;7.756;;
06.01.2023 06:45;8.125;;
06.01.2023 07:00;8.400;;
06.01.2023 07:15;8.845;;
06.01.2023 07:30;9.068;;
06.01.2023 07:45;9.345;;
06.01.2023 08:00;9.576;;
06.01.2023 08:15;10.017;;
06.01.2023 08:30;10.262;;
06.01.2023 08:45;10.487;;
06.01.2023 09:00;10.950;;
06.01.2023 09:15;10.933;;
06.01.2023 09:30;11.361;;
06.01.2023 09:45;11.456;;
06.01.2023 10:00;11.424;;
06.01.2023 10:15;11.615;;
06.01.2023 10:30;11.599;;
06.01.2023 10:45;11.359;;
06.01.2023 11:00;11.337;;
06.01.2023 11:15;11.557;;
06.01.2023 11:30;11.738;;
06.01.2023 11:45;11.978;;
06.01.2023 12:00;12.048;;
06.01.2023 12:15;11.571;;
06.01.2023 12:30;11.322;;
06.01.2023 12:45;11.211;;
06.01.2023 13:00;11.558;;
06.01.2023 13:15;11.368;;
06.01.2023 13:30;10.834;;
06.01.2023 13:45;10.905;;
06.01.2023 14:00;10.557;;
06.01.2023 14:15;10.458;;
06.01.2023 14:30;10.422;;
06.01.2023 14:45;10.345;;
06.01.2023 15:00;10.283;;
06.01.2023 15:15;10.247;;
06.01.2023 15:30;10.283;;
06.01.2023 15:45;10.350;;
06.01.2023 16:00;10.689;;
06.01.2023 16:15;11.001;;
06.01.2023 16:30;11.076;;
06.01.2023 16:45;11.057;;
06.01.2023 17:00;11.116;;
06.01.2023 17:15;11.392;;
06.01.2023 17:30;11.664;;
06.01.2023 17:45;11.567;;
06.01.2023 18:00;11.497;;
06.01.2023 18:15;11.540;;
06.01.2023 18:30;11.592;;
06.01.2023 18:45;11.675;;
06.01.2023 19:00;11.837;;
06.01.2023 19:15;11.704;;
06.01.2023 19:30;11.758;;
06.01.2023 19:45;11.596;;
06.01.2023 20:00;11.178;;
06.01.2023 20:15;10.790;;
06.01.2023 20:30;10.403;;
06.01.2023 20:45;10.092;;
06.01.2023 21:00;9.911;;
06.01.2023 21:15;9.664;;
06.01.2023 21:30;9.384;;
06.01.2023 21:45;9.413;;
06.01.2023 22:00;9.345;;
06.01.2023 22:15;9.480;;
06.01.2023 22:30;9.378;;
06.01.2023 22:45;9.171;;
06.01.2023 23:00;8.914;;
06.01.2023 23:15;8.544;;
06.01.2023 23:30;8.270;;
06.01.2023 23:45;7.891;;
07.01.2023 00:00;7.607;;
07.01.2023 00:15;7.399;;
07.01.2023 00:30;7.172;;
07.01.2023 00:45;6.930;;
07.01.2023 01:00;6.739;;
07.01.2023 01:15;6.569;;
07.01.2023 01:30;6.407;;
07.01.2023 01:45;6.262;;
07.01.2023 02:00;6.147;;
07.01.2023 02:15;6.047;;
07.01.2023 02:30;6.022;;
07.01.2023 02:45;5.930;;
07.01.2023 03:00;5.959;;
07.01.2023 03:15;6.008;;
07.01.2023 03:30;6.015;;
07.01.2023 03:45;6.013;;
07.01.2023 04:00;6.025;;
07.01.2023 04:15;6.055;;
07.01.2023 04:30;6.055;;
07.01.2023 04:45;6.079;;
07.01.2023 05:00;6.108;;
07.01.2023 05:15;6.178;;
07.01.2023 05:30;6.163;;
07.01.2023 05:45;6.133;;
07.01.2023 06:00;6.143;;
07.01.2023 06:15;6.297;;
07.01.2023 06:30;6.449;;
07.01.2023 06:45;6.647;;
07.01.2023 07:00;6.802;;
07.01.2023 07:15;7.066;;
07.01.2023 07:30;7.389;;
07.01.2023 07:45;7.855;;
07.01.2023 08:00;8.492;;
07.01.2023 08:15;8.709;;
07.01.2023 08:30;8.554;;
07.01.2023 08:45;8.555;;
07.01.2023 09:00;8.783;;
07.01.2023 09:15;9.083;;
07.01.2023 09:30;9.187;;
07.01.2023 09:45;9.286;;
07.01.2023 10:00;9.327;;
07.01.2023 10:15;9.663;;
07.01.2023 10:30;9.928;;
07.01.2023 10:45;9.978;;
07.01.2023 11:00;9.810;;
07.01.2023 11:15;9.762;;
07.01.2023 11:30;9.725;;
07.01.2023 11:45;9.867;;
07.01.2023 12:00;9.866;;
07.01.2023 12:15;9.897;;
07.01.2023 12:30;10.034;;
07.01.2023 12:45;10.111;;
07.01.2023 13:00;10.413;;
07.01.2023 13:15;10.650;;
07.01.2023 13:30;10.576;;
07.01.2023 13:45;10.444;;
07.01.2023 14:00;10.313;;
07.01.2023 14:15;10.205;;
07.01.2023 14:30;10.099;;
07.01.2023 14:45;9.969;;
07.01.2023 15:00;9.810;;
07.01.2023 15:15;9.513;;
07.01.2023 15:30;9.208;;
07.01.2023 15:45;9.236;;
07.01.2023 16:00;9.257;;
07.01.2023 16:15;9.747;;
07.01.2023 16:30;10.059;;
07.01.2023 16:45;10.371;;
07.01.2023 17:00;10.475;;
07.01.2023 17:15;10.652;;
07.01.2023 17:30;11.055;;
07.01.2023 17:45;11.609;;
07.01.2023 18:00;12.062;;
07.01.2023 18:15;12.343;;
07.01.2023 18:30;12.502;;
07.01.2023 18:45;12.327;;
07.01.2023 19:00;12.066;;
07.01.2023 19:15;11.790;;
07.01.2023 19:30;11.589;;
07.01.2023 19:45;11.406;;
07.01.2023 20:00;11.369;;
07.01.2023 20:15;11.228;;
07.01.2023 20:30;11.062;;
07.01.2023 20:45;10.948;;
07.01.2023 21:00;10.629;;
07.01.2023 21:15;10.375;;
07.01.2023 21:30;10.205;;
07.01.2023 21:45;10.119;;
07.01.2023 22:00;9.842;;
07.01.2023 22:15;10.011;;
07.01.2023 22:30;10.039;;
07.01.2023 22:45;9.868;;
07.01.2023 23:00;9.646;;
07.01.2023 23:15;9.603;;
07.01.2023 23:30;9.502;;
07.01.2023 23:45;9.222;;
08.01.2023 00:00;9.065;;
08.01.2023 00:15;9.368;;
08.01.2023 00:30;9.158;;
08.01.2023 00:45;8.887;;
08.01.2023 01:00;8.316;;
08.01.2023 01:15;7.985;;
08.01.2023 01:30;7.987;;
08.01.2023 01:45;7.856;;
08.01.2023 02:00;7.606;;
08.01.2023 02:15;7.480;;
08.01.2023 02:30;7.283;;
08.01.2023 02:45;7.299;;
08.01.2023 03:00;7.056;;
08.01.2023 03:15;6.723;;
08.01.2023 03:30;6.615;;
08.01.2023 03:45;6.720;;
08.01.2023 04:00;6.511;;
08.01.2023 04:15;6.544;;
08.01.2023 04:30;6.481;;
08.01.2023 04:45;6.397;;
08.01.2023 05:00;6.292;;
08.01.2023 05:15;6.419;;
08.01.2023 05:30;6.835;;
08.01.2023 05:45;7.271;;
08.01.2023 06:00;7.262;;
08.01.2023 06:15;6.810;;
08.01.2023 06:30;6.806;;
08.01.2023 06:45;6.670;;
08.01.2023 07:00;6.661;;
08.01.2023 07:15;6.839;;
08.01.2023 07:30;7.150;;
08.01.2023 07:45;7.443;;
08.01.2023 08:00;7.908;;
08.01.2023 08:15;8.091;;
08.01.2023 08:30;8.163;;
08.01.2023 08:45;8.424;;
08.01.2023 09:00;8.522;;
08.01.2023 09:15;8.923;;
08.01.2023 09:30;9.203;;
08.01.2023 09:45;9.153;;
08.01.2023 10:00;9.293;;
08.01.2023 10:15;9.420;;
08.01.2023 10:30;9.583;;
08.01.2023 10:45;9.481;;
08.01.2023 11:00;9.537;;
08.01.2023 11:15;9.717;;
08.01.2023 11:30;9.770;;
08.01.2023 11:45;9.684;;
08.01.2023 12:00;9.118;;
08.01.2023 12:15;9.301;;
08.01.2023 12:30;9.558;;
08.01.2023 12:45;9.476;;
08.01.2023 13:00;9.607;;
08.01.2023 13:15;9.529;;
08.01.2023 13:30;9.416;;
08.01.2023 13:45;9.628;;
08.01.2023 14:00;9.614;;
08.01.2023 14:15;9.541;;
08.01.2023 14:30;9.626;;
08.01.2023 14:45;9.532;;
08.01.2023 15:00;9.435;;
08.01.2023 15:15;9.641;;
08.01.2023 15:30;9.712;;
08.01.2023 15:45;9.314;;
08.01.2023 16:00;9.024;;
08.01.2023 16:15;9.111;;
08.01.2023 16:30;9.242;;
08.01.2023 16:45;9.503;;
08.01.2023 17:00;9.806;;
08.01.2023 17:15;10.315;;
08.01.2023 17:30;10.721;;
08.01.2023 17:45;10.878;;
08.01.2023 18:00;11.109;;
08.01.2023 18:15;11.090;;
08.01.2023 18:30;10.994;;
08.01.2023 18:45;11.008;;
08.01.2023 19:00;10.725;;
08.01.2023 19:15;10.583;;
08.01.2023 19:30;10.510;;
08.01.2023 19:45;10.598;;
08.01.2023 20:00;10.611;;
08.01.2023 20:15;10.445;;
08.01.2023 20:30;10.262;;
08.01.2023 20:45;9.866;;
08.01.2023 21:00;9.598;;
08.01.2023 21:15;9.482;;
08.01.2023 21:30;9.470;;
08.01.2023 21:45;9.481;;
08.01.2023 22:00;9.709;;
08.01.2023 22:15;10.081;;
08.01.2023 22:30;10.199;;
08.01.2023 22:45;9.903;;
08.01.2023 23:00;9.703;;
08.01.2023 23:15;9.513;;
08.01.2023 23:30;9.408;;
08.01.2023 23:45;9.232;;
09.01.2023 00:00;8.727;;
09.01.2023 00:15;8.576;;
09.01.2023 00:30;8.533;;
09.01.2023 00:45;8.311;;
09.01.2023 01:00;8.156;;
09.01.2023 01:15;7.874;;
09.01.2023 01:30;7.825;;
09.01.2023 01:45;7.899;;
09.01.2023 02:00;7.682;;
09.01.2023 02:15;7.126;;
09.01.2023 02:30;6.459;;
09.01.2023 02:45;6.293;;
09.01.2023 03:00;5.827;;
09.01.2023 03:15;5.993;;
09.01.2023 03:30;6.066;;
09.01.2023 03:45;6.153;;
09.01.2023 04:00;6.258;;
09.01.2023 04:15;6.450;;
09.01.2023 04:30;7.016;;
09.01.2023 04:45;7.519;;
09.01.2023 05:00;8.220;;
09.01.2023 05:15;8.995;;
09.01.2023 05:30;9.271;;
09.01.2023 05:45;9.489;;
09.01.2023 06:00;9.113;;
09.01.2023 06:15;9.757;;
09.01.2023 06:30;10.187;;
09.01.2023 06:45;10.696;;
09.01.2023 07:00;11.308;;
09.01.2023 07:15;11.828;;
09.01.2023 07:30;11.970;;
09.01.2023 07:45;11.799;;
09.01.2023 08:00;12.002;;
09.01.2023 08:15;12.328;;
09.01.2023 08:30;12.062;;
09.01.2023 08:45;12.172;;
09.01.2023 09:00;12.246;;
09.01.2023 09:15;11.987;;
09.01.2023 09:30;11.891;;
09.01.2023 09:45;11.671;;
09.01.2023 10:00;11.416;;
09.01.2023 10:15;11.093;;
09.01.2023 10:30;11.041;;
09.01.2023 10:45;11.206;;
09.01.2023 11:00;11.282;;
09.01.2023 11:15;11.688;;
09.01.2023 11:30;11.982;;
09.01.2023 11:45;11.923;;
09.01.2023 12:00;11.710;;
09.01.2023 12:15;11.359;;
09.01.2023 12:30;11.098;;
09.01.2023 12:45;10.919;;
09.01.2023 13:00;11.121;;
09.01.2023 13:15;11.534;;
09.01.2023 13:30;11.528;;
09.01.2023 13:45;11.068;;
09.01.2023 14:00;11.089;;
09.01.2023 14:15;11.292;;
09.01.2023 14:30;11.294;;
09.01.2023 14:45;10.597;;
09.01.2023 15:00;10.429;;
09.01.2023 15:15;10.593;;
09.01.2023 15:30;10.224;;
09.01.2023 15:45;10.239;;
09.01.2023 16:00;10.693;;
09.01.2023 16:15;11.092;;
09.01.2023 16:30;11.412;;
09.01.2023 16:45;11.990;;
09.01.2023 17:00;11.850;;
09.01.2023 17:15;12.449;;
09.01.2023 17:30;12.806;;
09.01.2023 17:45;12.791;;
09.01.2023 18:00;13.020;;
09.01.2023 18:15;13.236;;
09.01.2023 18:30;13.537;;
09.01.2023 18:45;13.681;;
09.01.2023 19:00;13.540;;
09.01.2023 19:15;12.766;;
09.01.2023 19:30;12.052;;
09.01.2023 19:45;11.723;;
09.01.2023 20:00;11.538;;
09.01.2023 20:15;11.175;;
09.01.2023 20:30;10.790;;
09.01.2023 20:45;10.517;;
09.01.2023 21:00;10.358;;
09.01.2023 21:15;10.077;;
09.01.2023 21:30;9.897;;
09.01.2023 21:45;9.923;;
09.01.2023 22:00;10.053;;
09.01.2023 22:15;10.313;;
09.01.2023 22:30;10.186;;
09.01.2023 22:45;9.801;;
09.01.2023 23:00;9.397;;
09.01.2023 23:15;9.096;;
09.01.2023 23:30;9.082;;
09.01.2023 23:45;9.022;;
10.01.2023 00:00;8.945;;
10.01.2023 00:15;8.851;;
10.01.2023 00:30;8.472;;
10.01.2023 00:45;8.550;;
10.01.2023 01:00;8.538;;
10.01.2023 01:15;8.220;;
10.01.2023 01:30;8.229;;
10.01.2023 01:45;8.330;;
10.01.2023 02:00;8.250;;
10.01.2023 02:15;8.265;;
10.01.2023 02:30;8.648;;
10.01.2023 02:45;8.697;;
10.01.2023 03:00;8.879;;
10.01.2023 03:15;8.859;;
10.01.2023 03:30;9.130;;
10.01.2023 03:45;9.249;;
10.01.2023 04:00;9.305;;
10.01.2023 04:15;9.222;;
10.01.2023 04:30;8.685;;
10.01.2023 04:45;8.773;;
10.01.2023 05:00;8.704;;
10.01.2023 05:15;8.641;;
10.01.2023 05:30;8.415;;
10.01.2023 05:45;8.618;;
10.01.2023 06:00;9.369;;
10.01.2023 06:15;9.825;;
10.01.2023 06:30;9.884;;
10.01.2023 06:45;9.705;;
10.01.2023 07:00;9.636;;
10.01.2023 07:15;10.043;;
10.01.2023 07:30;10.141;;
10.01.2023 07:45;10.705;;
10.01.2023 08:00;10.571;;
10.01.2023 08:15;10.778;;
10.01.2023 08:30;10.549;;
10.01.2023 08:45;10.497;;
10.01.2023 09:00;10.383;;
10.01.2023 09:15;10.352;;
10.01.2023 09:30;10.388;;
10.01.2023 09:45;10.401;;
10.01.2023 10:00;10.343;;
10.01.2023 10:15;10.114;;
10.01.2023 10:30;9.831;;
10.01.2023 10:45;9.805;;